Time,TemperatureF,DewpointF,PressureIn,WindDirection,WindDirectionDegrees,WindSpeedMPH,WindSpeedGustMPH,Humidity,HourlyPrecipIn,Conditions,Clouds,dailyrainin,SoftwareType,DateUTC
2013-02-15 00:04:00,34.7,20.2,30.24,North,9,12.0,16.0,55,0.00,,,0.00,Wunderground v.1.15,2013-02-15 06:04:00,
2013-02-15 00:10:00,34.4,20.3,30.25,North,9,13.0,17.0,56,0.00,,,0.00,Wunderground v.1.15,2013-02-15 06:10:00,
2013-02-15 00:15:00,34.1,20.4,30.25,North,11,13.0,19.0,57,0.00,,,0.00,Wunderground v.1.15,2013-02-15 06:15:00,
2013-02-15 00:20:00,33.7,20.5,30.25,North,9,13.0,15.0,58,0.00,,,0.00,Wunderground v.1.15,2013-02-15 06:20:00,
2013-02-15 00:26:00,33.4,20.2,30.25,NNE,25,13.0,17.0,58,0.00,,,0.00,Wunderground v.1.15,2013-02-15 06:26:00,
2013-02-15 00:32:00,33.0,20.2,30.26,NNW,336,13.0,17.0,59,0.00,,,0.00,Wunderground v.1.15,2013-02-15 06:32:00,
2013-02-15 00:37:00,32.7,19.9,30.26,North,355,13.0,19.0,59,0.00,,,0.00,Wunderground v.1.15,2013-02-15 06:37:00,
2013-02-15 00:43:00,32.5,19.7,30.26,North,9,15.0,26.0,59,0.00,,,0.00,Wunderground v.1.15,2013-02-15 06:43:00,
2013-02-15 00:48:00,32.1,19.8,30.26,NNW,338,15.0,26.0,60,0.00,,,0.00,Wunderground v.1.15,2013-02-15 06:48:00,
2013-02-15 00:54:00,31.7,19.8,30.27,North,355,14.0,21.0,61,0.00,,,0.00,Wunderground v.1.15,2013-02-15 06:54:00,
2013-02-15 01:00:00,31.4,19.5,30.27,NNW,343,15.0,20.0,61,0.00,,,0.00,Wunderground v.1.15,2013-02-15 07:00:00,
2013-02-15 01:06:00,31.1,19.2,30.27,NNW,346,15.0,20.0,61,0.00,,,0.00,Wunderground v.1.15,2013-02-15 07:06:00,
2013-02-15 01:11:00,30.8,19.3,30.27,North,355,16.0,16.0,62,0.00,,,0.00,Wunderground v.1.15,2013-02-15 07:11:00,
2013-02-15 01:16:00,30.5,19.4,30.28,NNW,337,14.0,19.0,63,0.00,,,0.00,Wunderground v.1.15,2013-02-15 07:16:00,
2013-02-15 01:22:00,30.1,19.4,30.28,North,360,13.0,18.0,64,0.00,,,0.00,Wunderground v.1.15,2013-02-15 07:22:00,
2013-02-15 01:27:00,29.9,19.2,30.28,NNW,338,14.0,18.0,64,0.00,,,0.00,Wunderground v.1.15,2013-02-15 07:27:00,
2013-02-15 01:32:00,29.6,19.3,30.28,North,9,15.0,16.0,65,0.00,,,0.00,Wunderground v.1.15,2013-02-15 07:32:00,
2013-02-15 01:38:00,29.4,19.1,30.29,NNW,346,14.0,20.0,65,0.00,,,0.00,Wunderground v.1.15,2013-02-15 07:38:00,
2013-02-15 01:43:00,29.2,19.2,30.29,NNW,342,13.0,16.0,66,0.00,,,0.00,Wunderground v.1.15,2013-02-15 07:43:00,
2013-02-15 01:48:00,29.1,19.2,30.29,NNW,333,14.0,21.0,66,0.00,,,0.00,Wunderground v.1.15,2013-02-15 07:48:00,
2013-02-15 01:54:00,28.8,19.2,30.29,North,360,15.0,20.0,67,0.00,,,0.00,Wunderground v.1.15,2013-02-15 07:54:00,
2013-02-15 01:59:00,28.6,19.4,30.29,NNW,348,14.0,20.0,68,0.00,,,0.00,Wunderground v.1.15,2013-02-15 07:59:00,
2013-02-15 02:05:00,28.4,19.2,30.30,North,355,14.0,19.0,68,0.00,,,0.00,Wunderground v.1.15,2013-02-15 08:05:00,
2013-02-15 02:10:00,28.3,19.4,30.30,NNW,346,14.0,20.0,69,0.00,,,0.00,Wunderground v.1.15,2013-02-15 08:10:00,
2013-02-15 02:16:00,28.2,19.3,30.30,North,355,14.0,21.0,69,0.00,,,0.00,Wunderground v.1.15,2013-02-15 08:16:00,
2013-02-15 02:22:00,28.0,19.5,30.31,North,355,14.0,17.0,70,0.00,,,0.00,Wunderground v.1.15,2013-02-15 08:22:00,
2013-02-15 02:27:00,27.7,19.2,30.30,NNW,345,13.0,17.0,70,0.00,,,0.00,Wunderground v.1.15,2013-02-15 08:27:00,
2013-02-15 02:32:00,27.5,19.3,30.31,North,350,12.0,16.0,71,0.00,,,0.00,Wunderground v.1.15,2013-02-15 08:32:00,
2013-02-15 02:38:00,27.3,19.1,30.31,North,355,11.0,16.0,71,0.00,,,0.00,Wunderground v.1.15,2013-02-15 08:38:00,
2013-02-15 02:43:00,27.2,19.4,30.31,North,360,11.0,15.0,72,0.00,,,0.00,Wunderground v.1.15,2013-02-15 08:43:00,
2013-02-15 02:48:00,27.0,19.2,30.31,NNW,340,12.0,15.0,72,0.00,,,0.00,Wunderground v.1.15,2013-02-15 08:48:00,
2013-02-15 02:54:00,26.9,19.4,30.31,North,355,12.0,17.0,73,0.00,,,0.00,Wunderground v.1.15,2013-02-15 08:54:00,
2013-02-15 02:59:00,26.7,19.2,30.31,NNW,348,13.0,17.0,73,0.00,,,0.00,Wunderground v.1.15,2013-02-15 08:59:00,
2013-02-15 03:05:00,26.5,19.3,30.31,NNW,341,12.0,17.0,74,0.00,,,0.00,Wunderground v.1.15,2013-02-15 09:05:00,
2013-02-15 03:10:00,26.3,19.1,30.32,North,9,13.0,13.0,74,0.00,,,0.00,Wunderground v.1.15,2013-02-15 09:10:00,
2013-02-15 03:16:00,26.3,19.5,30.31,North,9,14.0,19.0,75,0.00,,,0.00,Wunderground v.1.15,2013-02-15 09:16:00,
2013-02-15 03:22:00,26.1,19.3,30.31,NNW,343,13.0,17.0,75,0.00,,,0.00,Wunderground v.1.15,2013-02-15 09:22:00,
2013-02-15 03:27:00,25.9,19.1,30.31,North,355,11.0,17.0,75,0.00,,,0.00,Wunderground v.1.15,2013-02-15 09:27:00,
2013-02-15 03:32:00,25.8,19.3,30.31,North,355,12.0,16.0,76,0.00,,,0.00,Wunderground v.1.15,2013-02-15 09:32:00,
2013-02-15 03:38:00,25.7,19.2,30.31,North,355,12.0,16.0,76,0.00,,,0.00,Wunderground v.1.15,2013-02-15 09:38:00,
2013-02-15 03:43:00,25.6,19.1,30.31,NNW,339,13.0,17.0,76,0.00,,,0.00,Wunderground v.1.15,2013-02-15 09:43:00,
2013-02-15 03:49:00,25.4,18.9,30.31,North,9,13.0,17.0,76,0.00,,,0.00,Wunderground v.1.15,2013-02-15 09:49:00,
2013-02-15 03:54:00,25.4,18.9,30.31,North,9,12.0,13.0,76,0.00,,,0.00,Wunderground v.1.15,2013-02-15 09:54:00,
2013-02-15 03:59:00,25.2,19.0,30.31,North,350,11.0,16.0,77,0.00,,,0.00,Wunderground v.1.15,2013-02-15 09:59:00,
2013-02-15 04:05:00,25.1,18.9,30.31,North,360,11.0,15.0,77,0.00,,,0.00,Wunderground v.1.15,2013-02-15 10:05:00,
2013-02-15 04:10:00,24.9,18.7,30.31,North,355,11.0,11.0,77,0.00,,,0.00,Wunderground v.1.15,2013-02-15 10:10:00,
2013-02-15 04:16:00,24.8,18.9,30.31,NNW,346,10.0,13.0,78,0.00,,,0.00,Wunderground v.1.15,2013-02-15 10:16:00,
2013-02-15 04:22:00,24.6,18.7,30.31,NNW,348,11.0,15.0,78,0.00,,,0.00,Wunderground v.1.15,2013-02-15 10:22:00,
2013-02-15 04:27:00,24.5,18.6,30.31,North,360,12.0,17.0,78,0.00,,,0.00,Wunderground v.1.15,2013-02-15 10:27:00,
2013-02-15 04:33:00,24.4,18.5,30.31,North,355,12.0,16.0,78,0.00,,,0.00,Wunderground v.1.15,2013-02-15 10:33:00,
2013-02-15 04:38:00,24.3,18.7,30.31,North,355,12.0,16.0,79,0.00,,,0.00,Wunderground v.1.15,2013-02-15 10:38:00,
2013-02-15 04:44:00,24.1,18.5,30.32,North,355,11.0,13.0,79,0.00,,,0.00,Wunderground v.1.15,2013-02-15 10:44:00,
2013-02-15 04:49:00,24.0,18.4,30.32,NNW,348,11.0,13.0,79,0.00,,,0.00,Wunderground v.1.15,2013-02-15 10:49:00,
2013-02-15 04:54:00,23.8,18.5,30.32,North,351,11.0,14.0,80,0.00,,,0.00,Wunderground v.1.15,2013-02-15 10:54:00,
2013-02-15 04:59:00,23.7,18.4,30.33,North,9,11.0,15.0,80,0.00,,,0.00,Wunderground v.1.15,2013-02-15 10:59:00,
2013-02-15 05:05:00,23.6,18.3,30.33,NNW,348,10.0,14.0,80,0.00,,,0.00,Wunderground v.1.15,2013-02-15 11:05:00,
2013-02-15 05:11:00,23.6,18.3,30.33,NNW,346,11.0,14.0,80,0.00,,,0.00,Wunderground v.1.15,2013-02-15 11:11:00,
2013-02-15 05:17:00,23.6,18.3,30.34,North,355,11.0,14.0,80,0.00,,,0.00,Wunderground v.1.15,2013-02-15 11:17:00,
2013-02-15 05:22:00,23.6,18.3,30.34,NNW,340,10.0,13.0,80,0.00,,,0.00,Wunderground v.1.15,2013-02-15 11:22:00,
2013-02-15 05:27:00,23.6,18.3,30.34,North,351,10.0,13.0,80,0.00,,,0.00,Wunderground v.1.15,2013-02-15 11:27:00,
2013-02-15 05:33:00,23.6,18.0,30.34,North,9,11.0,14.0,79,0.00,,,0.00,Wunderground v.1.15,2013-02-15 11:33:00,
2013-02-15 05:38:00,23.5,18.2,30.34,North,355,11.0,14.0,80,0.00,,,0.00,Wunderground v.1.15,2013-02-15 11:38:00,
2013-02-15 05:43:00,23.4,18.1,30.35,North,355,9.0,13.0,80,0.00,,,0.00,Wunderground v.1.15,2013-02-15 11:43:00,
2013-02-15 05:49:00,23.3,18.0,30.34,NNW,346,10.0,15.0,80,0.00,,,0.00,Wunderground v.1.15,2013-02-15 11:49:00,
2013-02-15 05:54:00,23.4,17.8,30.34,North,351,11.0,14.0,79,0.00,,,0.00,Wunderground v.1.15,2013-02-15 11:54:00,
2013-02-15 05:59:00,23.3,17.7,30.35,North,355,11.0,14.0,79,0.00,,,0.00,Wunderground v.1.15,2013-02-15 11:59:00,
2013-02-15 06:05:00,23.2,17.9,30.35,North,355,10.0,15.0,80,0.00,,,0.00,Wunderground v.1.15,2013-02-15 12:05:00,
2013-02-15 06:10:00,23.0,17.7,30.35,North,349,9.0,12.0,80,0.00,,,0.00,Wunderground v.1.15,2013-02-15 12:10:00,
2013-02-15 06:16:00,23.0,17.7,30.35,North,355,9.0,16.0,80,0.00,,,0.00,Wunderground v.1.15,2013-02-15 12:16:00,
2013-02-15 06:21:00,22.9,17.4,30.35,North,360,10.0,13.0,79,0.00,,,0.00,Wunderground v.1.15,2013-02-15 12:21:00,
2013-02-15 06:26:00,22.7,17.2,30.35,NNW,333,10.0,16.0,79,0.00,,,0.00,Wunderground v.1.15,2013-02-15 12:26:00,
2013-02-15 06:32:00,22.5,17.0,30.36,North,350,10.0,13.0,79,0.00,,,0.00,Wunderground v.1.15,2013-02-15 12:32:00,
2013-02-15 06:37:00,22.4,16.6,30.36,North,360,9.0,13.0,78,0.00,,,0.00,Wunderground v.1.15,2013-02-15 12:37:00,
2013-02-15 06:42:00,22.3,16.5,30.36,North,355,10.0,13.0,78,0.00,,,0.00,Wunderground v.1.15,2013-02-15 12:42:00,
2013-02-15 06:48:00,22.2,16.4,30.37,North,360,10.0,13.0,78,0.00,,,0.00,Wunderground v.1.15,2013-02-15 12:48:00,
2013-02-15 06:53:00,22.5,16.7,30.37,NNE,15,9.0,12.0,78,0.00,,,0.00,Wunderground v.1.15,2013-02-15 12:53:00,
2013-02-15 06:58:00,22.6,16.8,30.37,North,9,9.0,13.0,78,0.00,,,0.00,Wunderground v.1.15,2013-02-15 12:58:00,
2013-02-15 07:04:00,22.6,16.5,30.37,NNW,341,9.0,13.0,77,0.00,,,0.00,Wunderground v.1.15,2013-02-15 13:04:00,
2013-02-15 07:10:00,22.5,16.7,30.37,NNW,340,8.0,10.0,78,0.00,,,0.00,Wunderground v.1.15,2013-02-15 13:10:00,
2013-02-15 07:15:00,22.5,16.7,30.37,North,355,7.0,10.0,78,0.00,,,0.00,Wunderground v.1.15,2013-02-15 13:15:00,
2013-02-15 07:21:00,22.5,16.7,30.38,NNW,346,8.0,12.0,78,0.00,,,0.00,Wunderground v.1.15,2013-02-15 13:21:00,
2013-02-15 07:26:00,22.4,16.6,30.38,NNW,347,8.0,12.0,78,0.00,,,0.00,Wunderground v.1.15,2013-02-15 13:26:00,
2013-02-15 07:32:00,22.4,16.6,30.38,NNW,348,8.0,10.0,78,0.00,,,0.00,Wunderground v.1.15,2013-02-15 13:32:00,
2013-02-15 07:37:00,22.4,16.6,30.38,North,355,7.0,10.0,78,0.00,,,0.00,Wunderground v.1.15,2013-02-15 13:37:00,
2013-02-15 07:43:00,22.4,16.6,30.38,NNW,342,7.0,10.0,78,0.00,,,0.00,Wunderground v.1.15,2013-02-15 13:43:00,
2013-02-15 07:48:00,22.2,16.7,30.38,North,9,7.0,10.0,79,0.00,,,0.00,Wunderground v.1.15,2013-02-15 13:48:00,
2013-02-15 07:53:00,22.3,16.8,30.38,North,355,8.0,10.0,79,0.00,,,0.00,Wunderground v.1.15,2013-02-15 13:53:00,
2013-02-15 07:59:00,22.5,17.0,30.38,North,350,7.0,12.0,79,0.00,,,0.00,Wunderground v.1.15,2013-02-15 13:59:00,
2013-02-15 08:05:00,22.7,17.5,30.38,NNE,19,7.0,9.0,80,0.00,,,0.00,Wunderground v.1.15,2013-02-15 14:05:00,
2013-02-15 08:11:00,22.7,17.5,30.38,NNW,348,7.0,10.0,80,0.00,,,0.00,Wunderground v.1.15,2013-02-15 14:11:00,
2013-02-15 08:16:00,23.1,17.6,30.38,NNE,15,7.0,10.0,79,0.00,,,0.00,Wunderground v.1.15,2013-02-15 14:16:00,
2013-02-15 08:22:00,23.3,17.7,30.39,North,351,8.0,10.0,79,0.00,,,0.00,Wunderground v.1.15,2013-02-15 14:22:00,
2013-02-15 08:27:00,23.5,17.9,30.39,NNE,12,8.0,11.0,79,0.00,,,0.00,Wunderground v.1.15,2013-02-15 14:27:00,
2013-02-15 08:33:00,23.8,17.9,30.39,North,9,7.0,10.0,78,0.00,,,0.00,Wunderground v.1.15,2013-02-15 14:33:00,
2013-02-15 08:38:00,24.2,18.3,30.39,North,9,8.0,11.0,78,0.00,,,0.00,Wunderground v.1.15,2013-02-15 14:38:00,
2013-02-15 08:43:00,24.5,18.3,30.39,North,360,9.0,13.0,77,0.00,,,0.00,Wunderground v.1.15,2013-02-15 14:43:00,
2013-02-15 08:49:00,25.0,18.2,30.39,North,11,10.0,14.0,75,0.00,,,0.00,Wunderground v.1.15,2013-02-15 14:49:00,
2013-02-15 08:54:00,25.2,18.1,30.39,North,360,11.0,16.0,74,0.00,,,0.00,Wunderground v.1.15,2013-02-15 14:54:00,
2013-02-15 09:00:00,25.6,18.1,30.39,North,9,11.0,11.0,73,0.00,,,0.00,Wunderground v.1.15,2013-02-15 15:00:00,
2013-02-15 09:06:00,26.0,18.2,30.39,NE,34,9.0,12.0,72,0.00,,,0.00,Wunderground v.1.15,2013-02-15 15:06:00,
2013-02-15 09:11:00,26.6,18.1,30.40,NNE,24,9.0,11.0,70,0.00,,,0.00,Wunderground v.1.15,2013-02-15 15:11:00,
2013-02-15 09:17:00,26.8,17.6,30.39,NNE,14,9.0,11.0,68,0.00,,,0.00,Wunderground v.1.15,2013-02-15 15:17:00,
2013-02-15 09:22:00,27.3,17.8,30.40,North,355,9.0,12.0,67,0.00,,,0.00,Wunderground v.1.15,2013-02-15 15:22:00,
2013-02-15 09:29:00,27.6,17.7,30.40,North,360,9.0,12.0,66,0.00,,,0.00,Wunderground v.1.15,2013-02-15 15:29:00,
2013-02-15 09:34:00,27.6,17.0,30.40,North,11,9.0,12.0,64,0.00,,,0.00,Wunderground v.1.15,2013-02-15 15:34:00,
2013-02-15 09:39:00,27.9,17.3,30.39,North,11,9.0,12.0,64,0.00,,,0.00,Wunderground v.1.15,2013-02-15 15:39:00,
2013-02-15 09:45:00,28.4,17.4,30.40,North,355,9.0,12.0,63,0.00,,,0.00,Wunderground v.1.15,2013-02-15 15:45:00,
2013-02-15 09:50:00,28.7,16.9,30.39,NNE,28,10.0,13.0,61,0.00,,,0.00,Wunderground v.1.15,2013-02-15 15:50:00,
2013-02-15 09:56:00,29.4,17.6,30.39,North,360,9.0,13.0,61,0.00,,,0.00,Wunderground v.1.15,2013-02-15 15:56:00,
2013-02-15 10:01:00,29.5,17.3,30.39,NNE,17,8.0,9.0,60,0.00,,,0.00,Wunderground v.1.15,2013-02-15 16:01:00,
2013-02-15 10:06:00,29.8,16.8,30.40,NNW,347,9.0,13.0,58,0.00,,,0.00,Wunderground v.1.15,2013-02-15 16:06:00,
2013-02-15 10:12:00,30.1,16.7,30.40,NW,324,8.0,10.0,57,0.00,,,0.00,Wunderground v.1.15,2013-02-15 16:12:00,
2013-02-15 10:17:00,30.5,16.2,30.40,NNW,339,8.0,14.0,55,0.00,,,0.00,Wunderground v.1.15,2013-02-15 16:17:00,
2013-02-15 10:23:00,30.5,15.4,30.40,NW,320,8.0,10.0,53,0.00,,,0.00,Wunderground v.1.15,2013-02-15 16:23:00,
2013-02-15 10:28:00,30.6,15.5,30.40,NNE,15,8.0,12.0,53,0.00,,,0.00,Wunderground v.1.15,2013-02-15 16:28:00,
2013-02-15 10:33:00,31.0,15.8,30.39,North,355,8.0,11.0,53,0.00,,,0.00,Wunderground v.1.15,2013-02-15 16:33:00,
2013-02-15 10:39:00,30.6,14.6,30.39,NNE,13,8.0,11.0,51,0.00,,,0.00,Wunderground v.1.15,2013-02-15 16:39:00,
2013-02-15 10:44:00,30.6,14.1,30.39,NNE,23,8.0,9.0,50,0.00,,,0.00,Wunderground v.1.15,2013-02-15 16:44:00,
2013-02-15 10:50:00,30.8,14.8,30.39,NNW,328,9.0,9.0,51,0.00,,,0.00,Wunderground v.1.15,2013-02-15 16:50:00,
2013-02-15 10:56:00,31.1,15.1,30.39,North,349,7.0,11.0,51,0.00,,,0.00,Wunderground v.1.15,2013-02-15 16:56:00,
2013-02-15 11:02:00,31.5,14.5,30.40,North,360,8.0,12.0,49,0.00,,,0.00,Wunderground v.1.15,2013-02-15 17:02:00,
2013-02-15 11:08:00,31.4,15.3,30.40,North,360,8.0,12.0,51,0.00,,,0.00,Wunderground v.1.15,2013-02-15 17:08:00,
2013-02-15 11:14:00,31.8,15.3,30.40,North,350,7.0,9.0,50,0.00,,,0.00,Wunderground v.1.15,2013-02-15 17:14:00,
2013-02-15 11:20:00,31.2,16.0,30.39,North,9,7.0,9.0,53,0.00,,,0.00,Wunderground v.1.15,2013-02-15 17:20:00,
2013-02-15 11:25:00,31.0,15.4,30.39,North,9,8.0,11.0,52,0.00,,,0.00,Wunderground v.1.15,2013-02-15 17:25:00,
2013-02-15 11:31:00,31.4,16.2,30.39,NNE,15,8.0,9.0,53,0.00,,,0.00,Wunderground v.1.15,2013-02-15 17:31:00,
2013-02-15 11:37:00,31.7,16.5,30.39,NNE,12,7.0,10.0,53,0.00,,,0.00,Wunderground v.1.15,2013-02-15 17:37:00,
2013-02-15 11:43:00,31.8,17.0,30.39,NE,34,6.0,10.0,54,0.00,,,0.00,Wunderground v.1.15,2013-02-15 17:43:00,
2013-02-15 11:48:00,32.1,17.7,30.39,NNE,12,6.0,10.0,55,0.00,,,0.00,Wunderground v.1.15,2013-02-15 17:48:00,
2013-02-15 11:54:00,32.3,17.9,30.39,NNE,15,6.0,7.0,55,0.00,,,0.00,Wunderground v.1.15,2013-02-15 17:54:00,
2013-02-15 11:59:00,32.9,18.1,30.38,NNE,26,5.0,7.0,54,0.00,,,0.00,Wunderground v.1.15,2013-02-15 17:59:00,
2013-02-15 12:05:00,33.0,18.1,30.38,North,355,4.0,7.0,54,0.00,,,0.00,Wunderground v.1.15,2013-02-15 18:05:00,
2013-02-15 12:11:00,33.9,18.1,30.38,NNE,21,4.0,7.0,52,0.00,,,0.00,Wunderground v.1.15,2013-02-15 18:11:00,
2013-02-15 12:17:00,34.1,17.4,30.37,NE,35,6.0,9.0,50,0.00,,,0.00,Wunderground v.1.15,2013-02-15 18:17:00,
2013-02-15 12:23:00,34.8,18.0,30.37,North,9,7.0,11.0,50,0.00,,,0.00,Wunderground v.1.15,2013-02-15 18:23:00,
2013-02-15 12:28:00,34.9,17.7,30.37,NNE,15,7.0,11.0,49,0.00,,,0.00,Wunderground v.1.15,2013-02-15 18:28:00,
2013-02-15 12:33:00,34.8,18.5,30.36,NE,37,5.0,9.0,51,0.00,,,0.00,Wunderground v.1.15,2013-02-15 18:33:00,
2013-02-15 12:39:00,35.6,18.3,30.36,NNW,344,6.0,12.0,49,0.00,,,0.00,Wunderground v.1.15,2013-02-15 18:39:00,
2013-02-15 12:45:00,35.6,18.3,30.36,NNW,331,7.0,11.0,49,0.00,,,0.00,Wunderground v.1.15,2013-02-15 18:45:00,
2013-02-15 12:50:00,35.8,18.0,30.36,North,350,8.0,8.0,48,0.00,,,0.00,Wunderground v.1.15,2013-02-15 18:50:00,
2013-02-15 12:56:00,36.0,18.2,30.36,NNW,347,8.0,11.0,48,0.00,,,0.00,Wunderground v.1.15,2013-02-15 18:56:00,
2013-02-15 13:02:00,36.1,17.8,30.35,North,9,6.0,9.0,47,0.00,,,0.00,Wunderground v.1.15,2013-02-15 19:02:00,
2013-02-15 13:08:00,36.6,17.7,30.35,North,355,7.0,13.0,46,0.00,,,0.00,Wunderground v.1.15,2013-02-15 19:08:00,
2013-02-15 13:13:00,36.8,16.9,30.35,NNW,336,8.0,11.0,44,0.00,,,0.00,Wunderground v.1.15,2013-02-15 19:13:00,
2013-02-15 13:19:00,37.0,18.1,30.34,NE,36,7.0,11.0,46,0.00,,,0.00,Wunderground v.1.15,2013-02-15 19:19:00,
2013-02-15 13:24:00,37.1,17.7,30.34,NNW,329,6.0,7.0,45,0.00,,,0.00,Wunderground v.1.15,2013-02-15 19:24:00,
2013-02-15 13:30:00,37.7,17.2,30.34,NNE,19,7.0,10.0,43,0.00,,,0.00,Wunderground v.1.15,2013-02-15 19:30:00,
2013-02-15 13:36:00,37.5,16.5,30.33,NW,319,8.0,10.0,42,0.00,,,0.00,Wunderground v.1.15,2013-02-15 19:36:00,
2013-02-15 13:42:00,37.9,16.8,30.33,NNW,339,7.0,8.0,42,0.00,,,0.00,Wunderground v.1.15,2013-02-15 19:42:00,
2013-02-15 13:47:00,38.2,17.1,30.33,NW,321,5.0,8.0,42,0.00,,,0.00,Wunderground v.1.15,2013-02-15 19:47:00,
2013-02-15 13:53:00,38.5,16.8,30.33,NNW,348,7.0,16.0,41,0.00,,,0.00,Wunderground v.1.15,2013-02-15 19:53:00,
2013-02-15 13:59:00,38.7,17.5,30.32,NNW,338,8.0,16.0,42,0.00,,,0.00,Wunderground v.1.15,2013-02-15 19:59:00,
2013-02-15 14:04:00,38.5,16.8,30.32,NW,317,6.0,8.0,41,0.00,,,0.00,Wunderground v.1.15,2013-02-15 20:04:00,
2013-02-15 14:09:00,38.3,16.6,30.32,NW,323,6.0,11.0,41,0.00,,,0.00,Wunderground v.1.15,2013-02-15 20:09:00,
2013-02-15 14:14:00,39.0,16.7,30.32,NNW,334,7.0,11.0,40,0.00,,,0.00,Wunderground v.1.15,2013-02-15 20:14:00,
2013-02-15 14:21:00,38.8,17.1,30.32,NNW,336,8.0,14.0,41,0.00,,,0.00,Wunderground v.1.15,2013-02-15 20:21:00,
2013-02-15 14:26:00,39.2,16.9,30.32,North,355,9.0,16.0,40,0.00,,,0.00,Wunderground v.1.15,2013-02-15 20:26:00,
2013-02-15 14:32:00,39.3,16.4,30.32,NNW,347,10.0,14.0,39,0.00,,,0.00,Wunderground v.1.15,2013-02-15 20:32:00,
2013-02-15 14:37:00,39.4,16.5,30.32,NNW,329,10.0,14.0,39,0.00,,,0.00,Wunderground v.1.15,2013-02-15 20:37:00,
2013-02-15 14:43:00,40.1,16.5,30.32,NW,314,9.0,11.0,38,0.00,,,0.00,Wunderground v.1.15,2013-02-15 20:43:00,
2013-02-15 14:48:00,39.8,16.8,30.32,North,350,9.0,13.0,39,0.00,,,0.00,Wunderground v.1.15,2013-02-15 20:48:00,
2013-02-15 14:54:00,40.0,17.0,30.32,NNW,337,11.0,18.0,39,0.00,,,0.00,Wunderground v.1.15,2013-02-15 20:54:00,
2013-02-15 14:59:00,40.2,16.6,30.31,North,355,11.0,18.0,38,0.00,,,0.00,Wunderground v.1.15,2013-02-15 20:59:00,
2013-02-15 15:04:00,40.5,16.9,30.32,NNW,331,10.0,12.0,38,0.00,,,0.00,Wunderground v.1.15,2013-02-15 21:04:00,
2013-02-15 15:09:00,41.4,16.4,30.31,NW,305,9.0,14.0,36,0.00,,,0.00,Wunderground v.1.15,2013-02-15 21:09:00,
2013-02-15 15:14:00,41.1,16.1,30.31,WNW,293,11.0,17.0,36,0.00,,,0.00,Wunderground v.1.15,2013-02-15 21:14:00,
2013-02-15 15:20:00,41.1,16.8,30.31,North,355,11.0,14.0,37,0.00,,,0.00,Wunderground v.1.15,2013-02-15 21:20:00,
2013-02-15 15:25:00,41.6,16.6,30.31,NW,306,11.0,16.0,36,0.00,,,0.00,Wunderground v.1.15,2013-02-15 21:25:00,
2013-02-15 15:30:00,41.3,16.3,30.31,NW,319,10.0,17.0,36,0.00,,,0.00,Wunderground v.1.15,2013-02-15 21:30:00,
2013-02-15 15:36:00,41.0,16.0,30.31,NNW,327,11.0,17.0,36,0.00,,,0.00,Wunderground v.1.15,2013-02-15 21:36:00,
2013-02-15 15:41:00,40.7,16.4,30.31,NNW,340,11.0,11.0,37,0.00,,,0.00,Wunderground v.1.15,2013-02-15 21:41:00,
2013-02-15 15:46:00,41.1,16.8,30.31,NW,310,9.0,12.0,37,0.00,,,0.00,Wunderground v.1.15,2013-02-15 21:46:00,
2013-02-15 15:52:00,40.9,16.0,30.31,NNW,329,11.0,21.0,36,0.00,,,0.00,Wunderground v.1.15,2013-02-15 21:52:00,
2013-02-15 15:58:00,40.5,16.2,30.31,NNW,334,13.0,21.0,37,0.00,,,0.00,Wunderground v.1.15,2013-02-15 21:58:00,
2013-02-15 16:04:00,40.6,16.3,30.31,NW,319,10.0,16.0,37,0.00,,,0.00,Wunderground v.1.15,2013-02-15 22:04:00,
2013-02-15 16:09:00,40.6,16.3,30.31,NW,318,11.0,19.0,37,0.00,,,0.00,Wunderground v.1.15,2013-02-15 22:09:00,
2013-02-15 16:15:00,40.5,16.2,30.30,NNW,329,12.0,16.0,37,0.00,,,0.00,Wunderground v.1.15,2013-02-15 22:15:00,
2013-02-15 16:20:00,40.0,16.4,30.31,North,355,10.0,10.0,38,0.00,,,0.00,Wunderground v.1.15,2013-02-15 22:20:00,
2013-02-15 16:26:00,40.1,16.5,30.30,North,350,9.0,11.0,38,0.00,,,0.00,Wunderground v.1.15,2013-02-15 22:26:00,
2013-02-15 16:31:00,40.1,17.1,30.31,NW,309,9.0,11.0,39,0.00,,,0.00,Wunderground v.1.15,2013-02-15 22:31:00,
2013-02-15 16:36:00,40.4,17.4,30.30,WNW,299,8.0,11.0,39,0.00,,,0.00,Wunderground v.1.15,2013-02-15 22:36:00,
2013-02-15 16:42:00,40.9,17.2,30.30,WNW,299,9.0,16.0,38,0.00,,,0.00,Wunderground v.1.15,2013-02-15 22:42:00,
2013-02-15 16:48:00,41.2,17.5,30.30,NW,307,12.0,16.0,38,0.00,,,0.00,Wunderground v.1.15,2013-02-15 22:48:00,
2013-02-15 16:53:00,40.9,17.2,30.30,WNW,299,12.0,17.0,38,0.00,,,0.00,Wunderground v.1.15,2013-02-15 22:53:00,
2013-02-15 16:59:00,40.5,17.5,30.30,WNW,286,11.0,17.0,39,0.00,,,0.00,Wunderground v.1.15,2013-02-15 22:59:00,
2013-02-15 17:05:00,40.1,17.1,30.30,NW,313,10.0,14.0,39,0.00,,,0.00,Wunderground v.1.15,2013-02-15 23:05:00,
2013-02-15 17:10:00,40.4,18.0,30.30,WNW,299,11.0,11.0,40,0.00,,,0.00,Wunderground v.1.15,2013-02-15 23:10:00,
2013-02-15 17:15:00,40.1,17.7,30.29,NNW,331,10.0,12.0,40,0.00,,,0.00,Wunderground v.1.15,2013-02-15 23:15:00,
2013-02-15 17:21:00,40.0,17.6,30.29,NW,305,8.0,9.0,40,0.00,,,0.00,Wunderground v.1.15,2013-02-15 23:21:00,
2013-02-15 17:27:00,39.9,16.9,30.29,NW,305,9.0,13.0,39,0.00,,,0.00,Wunderground v.1.15,2013-02-15 23:27:00,
2013-02-15 17:32:00,39.9,16.9,30.29,NW,313,8.0,10.0,39,0.00,,,0.00,Wunderground v.1.15,2013-02-15 23:32:00,
2013-02-15 17:37:00,39.5,17.1,30.29,NW,306,8.0,11.0,40,0.00,,,0.00,Wunderground v.1.15,2013-02-15 23:37:00,
2013-02-15 17:43:00,39.1,16.8,30.29,NW,323,8.0,10.0,40,0.00,,,0.00,Wunderground v.1.15,2013-02-15 23:43:00,
2013-02-15 17:48:00,38.7,16.4,30.29,NW,317,8.0,10.0,40,0.00,,,0.00,Wunderground v.1.15,2013-02-15 23:48:00,
2013-02-15 17:54:00,38.4,16.7,30.29,NW,317,6.0,9.0,41,0.00,,,0.00,Wunderground v.1.15,2013-02-15 23:54:00,
2013-02-15 17:59:00,38.1,17.0,30.29,NW,315,6.0,9.0,42,0.00,,,0.00,Wunderground v.1.15,2013-02-15 23:59:00,
2013-02-15 18:05:00,37.7,17.2,30.29,NW,314,5.0,6.0,43,0.00,,,0.00,Wunderground v.1.15,2013-02-16 00:05:00,
2013-02-15 18:10:00,37.5,17.0,30.29,NW,311,4.0,6.0,43,0.00,,,0.00,Wunderground v.1.15,2013-02-16 00:10:00,
2013-02-15 18:15:00,37.3,17.4,30.29,NW,313,4.0,6.0,44,0.00,,,0.00,Wunderground v.1.15,2013-02-16 00:15:00,
2013-02-15 18:21:00,37.0,17.6,30.29,NW,313,4.0,4.0,45,0.00,,,0.00,Wunderground v.1.15,2013-02-16 00:21:00,
2013-02-15 18:26:00,36.6,17.2,30.29,NW,313,3.0,4.0,45,0.00,,,0.00,Wunderground v.1.15,2013-02-16 00:26:00,
2013-02-15 18:31:00,36.2,17.4,30.29,NW,313,3.0,3.0,46,0.00,,,0.00,Wunderground v.1.15,2013-02-16 00:31:00,
2013-02-15 18:37:00,35.8,17.0,30.29,NW,313,2.0,3.0,46,0.00,,,0.00,Wunderground v.1.15,2013-02-16 00:37:00,
2013-02-15 18:42:00,35.5,17.2,30.29,NW,313,2.0,2.0,47,0.00,,,0.00,Wunderground v.1.15,2013-02-16 00:42:00,
2013-02-15 18:48:00,35.3,17.1,30.29,NW,313,2.0,2.0,47,0.00,,,0.00,Wunderground v.1.15,2013-02-16 00:48:00,
2013-02-15 18:53:00,35.1,16.9,30.29,NW,313,2.0,3.0,47,0.00,,,0.00,Wunderground v.1.15,2013-02-16 00:53:00,
2013-02-15 19:00:00,35.0,17.3,30.29,NW,313,3.0,4.0,48,0.00,,,0.00,Wunderground v.1.15,2013-02-16 01:00:00,
2013-02-15 19:05:00,34.8,17.1,30.29,NW,311,3.0,5.0,48,0.00,,,0.00,Wunderground v.1.15,2013-02-16 01:05:00,
2013-02-15 19:10:00,34.6,17.4,30.29,WNW,294,4.0,5.0,49,0.00,,,0.00,Wunderground v.1.15,2013-02-16 01:10:00,
2013-02-15 19:16:00,34.3,17.6,30.29,WNW,293,4.0,6.0,50,0.00,,,0.00,Wunderground v.1.15,2013-02-16 01:16:00,
2013-02-15 19:21:00,34.1,17.4,30.29,WNW,289,5.0,5.0,50,0.00,,,0.00,Wunderground v.1.15,2013-02-16 01:21:00,
2013-02-15 19:26:00,33.9,17.7,30.29,WNW,289,4.0,5.0,51,0.00,,,0.00,Wunderground v.1.15,2013-02-16 01:26:00,
2013-02-15 19:32:00,33.7,17.9,30.30,WNW,288,4.0,5.0,52,0.00,,,0.00,Wunderground v.1.15,2013-02-16 01:32:00,
2013-02-15 19:37:00,33.4,18.1,30.29,WNW,289,4.0,5.0,53,0.00,,,0.00,Wunderground v.1.15,2013-02-16 01:37:00,
2013-02-15 19:43:00,33.2,18.3,30.29,WNW,289,4.0,4.0,54,0.00,,,0.00,Wunderground v.1.15,2013-02-16 01:43:00,
2013-02-15 19:48:00,32.9,18.1,30.29,WNW,292,4.0,5.0,54,0.00,,,0.00,Wunderground v.1.15,2013-02-16 01:48:00,
2013-02-15 19:54:00,32.5,18.1,30.29,WNW,296,5.0,6.0,55,0.00,,,0.00,Wunderground v.1.15,2013-02-16 01:54:00,
2013-02-15 19:59:00,32.5,18.5,30.29,WNW,298,6.0,6.0,56,0.00,,,0.00,Wunderground v.1.15,2013-02-16 01:59:00,
2013-02-15 20:04:00,32.4,18.4,30.29,WNW,295,6.0,6.0,56,0.00,,,0.00,Wunderground v.1.15,2013-02-16 02:04:00,
2013-02-15 20:10:00,32.2,19.1,30.29,WNW,298,6.0,8.0,58,0.00,,,0.00,Wunderground v.1.15,2013-02-16 02:10:00,
2013-02-15 20:15:00,32.3,19.6,30.29,WNW,294,7.0,9.0,59,0.00,,,0.00,Wunderground v.1.15,2013-02-16 02:15:00,
2013-02-15 20:21:00,32.9,20.1,30.29,WNW,293,7.0,9.0,59,0.00,,,0.00,Wunderground v.1.15,2013-02-16 02:21:00,
2013-02-15 20:26:00,33.6,20.8,30.29,WNW,300,8.0,10.0,59,0.00,,,0.00,Wunderground v.1.15,2013-02-16 02:26:00,
2013-02-15 20:32:00,34.2,20.9,30.29,WNW,302,8.0,11.0,58,0.00,,,0.00,Wunderground v.1.15,2013-02-16 02:32:00,
2013-02-15 20:37:00,34.8,21.1,30.30,WNW,298,9.0,12.0,57,0.00,,,0.00,Wunderground v.1.15,2013-02-16 02:37:00,
2013-02-15 20:43:00,35.2,21.5,30.30,NW,306,10.0,13.0,57,0.00,,,0.00,Wunderground v.1.15,2013-02-16 02:43:00,
2013-02-15 20:48:00,35.2,21.9,30.30,NW,312,10.0,13.0,58,0.00,,,0.00,Wunderground v.1.15,2013-02-16 02:48:00,
2013-02-15 20:54:00,35.3,22.0,30.31,NW,309,9.0,12.0,58,0.00,,,0.00,Wunderground v.1.15,2013-02-16 02:54:00,
2013-02-15 20:59:00,35.2,21.9,30.31,NW,312,9.0,12.0,58,0.00,,,0.00,Wunderground v.1.15,2013-02-16 02:59:00,
2013-02-15 21:05:00,35.2,22.3,30.31,NW,313,9.0,12.0,59,0.00,,,0.00,Wunderground v.1.15,2013-02-16 03:05:00,
2013-02-15 21:10:00,35.2,22.7,30.31,NW,306,9.0,13.0,60,0.00,,,0.00,Wunderground v.1.15,2013-02-16 03:10:00,
2013-02-15 21:16:00,35.3,22.8,30.32,NW,316,9.0,15.0,60,0.00,,,0.00,Wunderground v.1.15,2013-02-16 03:16:00,
2013-02-15 21:21:00,35.0,22.1,30.32,NNW,342,9.0,11.0,59,0.00,,,0.00,Wunderground v.1.15,2013-02-16 03:21:00,
2013-02-15 21:26:00,34.8,21.9,30.32,NNW,327,10.0,13.0,59,0.00,,,0.00,Wunderground v.1.15,2013-02-16 03:26:00,
2013-02-15 21:32:00,34.2,20.9,30.32,NNW,338,10.0,13.0,58,0.00,,,0.00,Wunderground v.1.15,2013-02-16 03:32:00,
2013-02-15 21:37:00,33.7,20.9,30.32,NNW,336,10.0,13.0,59,0.00,,,0.00,Wunderground v.1.15,2013-02-16 03:37:00,
2013-02-15 21:43:00,33.2,20.4,30.33,NW,326,10.0,14.0,59,0.00,,,0.00,Wunderground v.1.15,2013-02-16 03:43:00,
2013-02-15 21:49:00,33.1,19.5,30.33,NNW,342,13.0,17.0,57,0.00,,,0.00,Wunderground v.1.15,2013-02-16 03:49:00,
2013-02-15 21:54:00,33.2,17.9,30.33,North,9,14.0,21.0,53,0.00,,,0.00,Wunderground v.1.15,2013-02-16 03:54:00,
2013-02-15 22:00:00,33.2,14.6,30.33,NNW,346,14.0,14.0,46,0.00,,,0.00,Wunderground v.1.15,2013-02-16 04:00:00,
2013-02-15 22:05:00,33.3,13.7,30.34,North,360,14.0,20.0,44,0.00,,,0.00,Wunderground v.1.15,2013-02-16 04:05:00,
2013-02-15 22:10:00,33.3,13.7,30.34,North,360,14.0,14.0,44,0.00,,,0.00,Wunderground v.1.15,2013-02-16 04:10:00,
2013-02-15 22:16:00,33.3,13.7,30.34,North,360,13.0,16.0,44,0.00,,,0.00,Wunderground v.1.15,2013-02-16 04:16:00,
2013-02-15 22:21:00,33.3,13.7,30.34,North,355,11.0,14.0,44,0.00,,,0.00,Wunderground v.1.15,2013-02-16 04:21:00,
2013-02-15 22:26:00,33.4,13.3,30.34,NNE,31,11.0,19.0,43,0.00,,,0.00,Wunderground v.1.15,2013-02-16 04:26:00,
2013-02-15 22:32:00,33.4,13.3,30.34,NNE,25,12.0,14.0,43,0.00,,,0.00,Wunderground v.1.15,2013-02-16 04:32:00,
2013-02-15 22:37:00,33.4,13.3,30.34,NNE,12,12.0,17.0,43,0.00,,,0.00,Wunderground v.1.15,2013-02-16 04:37:00,
2013-02-15 22:43:00,33.2,13.6,30.34,NNE,20,13.0,19.0,44,0.00,,,0.00,Wunderground v.1.15,2013-02-16 04:43:00,
2013-02-15 22:48:00,33.2,13.1,30.34,NNE,13,14.0,21.0,43,0.00,,,0.00,Wunderground v.1.15,2013-02-16 04:48:00,
2013-02-15 22:54:00,32.9,13.3,30.34,NE,37,13.0,15.0,44,0.00,,,0.00,Wunderground v.1.15,2013-02-16 04:54:00,
2013-02-15 22:59:00,32.8,13.2,30.34,NNE,12,12.0,19.0,44,0.00,,,0.00,Wunderground v.1.15,2013-02-16 04:59:00,
2013-02-15 23:00:00,32.7,13.7,30.34,NNE,20,12.0,12.0,45,0.00,,,0.00,Wunderground v.1.15,2013-02-16 05:00:00,
2013-02-15 23:01:00,32.6,13.6,30.34,NNE,31,13.0,13.0,45,0.00,,,0.00,Wunderground v.1.15,2013-02-16 05:01:00,
2013-02-15 23:04:00,32.5,13.5,30.35,North,9,12.0,14.0,45,0.00,,,0.00,Wunderground v.1.15,2013-02-16 05:04:00,
2013-02-15 23:06:00,32.3,13.3,30.35,NNW,346,11.0,14.0,45,0.00,,,0.00,Wunderground v.1.15,2013-02-16 05:06:00,
2013-02-15 23:12:00,32.0,13.5,30.35,North,9,11.0,16.0,46,0.00,,,0.00,Wunderground v.1.15,2013-02-16 05:12:00,
2013-02-15 23:17:00,31.8,13.8,30.35,North,9,14.0,18.0,47,0.00,,,0.00,Wunderground v.1.15,2013-02-16 05:17:00,
2013-02-15 23:22:00,31.6,13.7,30.35,North,360,12.0,16.0,47,0.00,,,0.00,Wunderground v.1.15,2013-02-16 05:22:00,
2013-02-15 23:28:00,31.1,13.7,30.35,NNE,13,11.0,16.0,48,0.00,,,0.00,Wunderground v.1.15,2013-02-16 05:28:00,
2013-02-15 23:34:00,30.8,13.4,30.35,North,355,10.0,13.0,48,0.00,,,0.00,Wunderground v.1.15,2013-02-16 05:34:00,
2013-02-15 23:37:00,30.5,13.6,30.35,North,355,9.0,13.0,49,0.00,,,0.00,Wunderground v.1.15,2013-02-16 05:37:00,
2013-02-15 23:43:00,30.1,13.7,30.35,North,355,9.0,13.0,50,0.00,,,0.00,Wunderground v.1.15,2013-02-16 05:43:00,
2013-02-15 23:48:00,29.8,13.9,30.35,North,9,9.0,13.0,51,0.00,,,0.00,Wunderground v.1.15,2013-02-16 05:48:00,
2013-02-15 23:55:00,29.5,13.6,30.35,North,355,8.0,12.0,51,0.00,,,0.00,Wunderground v.1.15,2013-02-16 05:55:00,